Location: Omaha
(41.2590°N, 95.9380°W)
Time: 20:39:49
(UTC-06:00)

Envisat - Pass Details

Date: 08 October 2017
Orbit: 764 x 766 km, 98.2° (Epoch: 13 December)

Event Time Altitude Azimuth Distance (km) Brightness Sun altitude
Exits shadow 21:21:41 74° 289° (WNW) 798 3.1 -28.4°
Drops below altitude 10° 21:26:33 10° 344° (NNW) 2,313 5.9 -29.3°
Sets 21:28:52 0° 346° (NNW) 3,244 6.7 -29.7°
